STARLINK-5571, 55380

Orbit data source: Space-Track

STARLINK-5571, 55380 is a payload satellite owned by SpaceX/Seattle (US) in LEO that was launched on Thu, 26 Jan 2023 UTC via an FALCON 9 launch vehicle from the Air Force Eastern Test Range (AFETR). Payload-class satellites include a variety of spacecraft equipped with specific instruments for various scientific and technological missions. These include communications satellites like Starlink; space stations such as the ISS; scientific satellites like the Hubble; Earth observation satellites from companies like Planet Labs, Umbra, and HawkEye 360; GPS; miniature CubeSats for education and research; and military/defense satellites.

Loading next visibility...
Identifier
55380, 2023-013BB
Orbit
LEO
Country
Flag of USUS
Related business
Manufacturer
SpaceX/Seattle
Mission
Operational Commercial Communications
Bus & Motor
STARLINK, Unknown motor
Mass
305 kg wet, ~290 kg dry
Launch date (UTC)
2023-01-26 (3 years ago)
Launch vehicle
FALCON 9
Launch site
Air Force Eastern Test Range (AFETR)
Object type
Payload
Rocket body
Debris
Shape & HBR
Box + 1 Pan, 10.1 m
Radar Cross Section
13.562 m², Large (>1 m²)

Expand to show TLE details & history
Last TLE update: 19 hours ago

TLE from 19 hours ago
0 STARLINK-5571
1 55380U 23013BB  25348.80841208 -.00007862  00000-0 -56704-3 0  9993
2 55380  43.0040  28.3227 0001204 283.2591  76.8117 15.02570696159090
Epoch: 2025-12-14T19:24Z
TLE epoch observation values (Epoch: 2025-12-14T19:24:06.803Z)
Latitude
-0.00003°
Longitude
13.5783°
Altitude
558.561 km
Speed
7.584 km/s
True Right ascension
01h 53m 17s
True Declination
0° 00' 00"
Sunlit
Object was in full shadow at epoch
Visualization orbit readout
Latitude
Unknown
Longitude
Unknown
Altitude
Unknown
Speed
Unknown
Apparent Right ascension
Unknown
Apparent Declination
Unknown
Sunlit
N/A
Visualization observer readout
Local Sidereal Time
13:19:52
Azimuth
Unknown
Elevation
Unknown
Doppler factor
Unknown
Orbital elements
Apogee altitude
561.732 km
Perigee altitude
560.061 km
Semi-major axis
6,939.033 km
Eccentricity
0.00012
Inclination
43.004°
RAAN
28.3227°
Arg. of periapsis
283.2591°
True anomaly
76.82513°
Mean anomaly
76.8117°
Eccentric anomaly
76.81842°
Mean motion
3.75487 °/min
Orbital period
95.88 mins
BSTAR
-0.00056704
Loading maneuver chart data...
Computing Atmospheric mass density...
Loading historical data...
Loading historical data...
Loading historical data...
Loading historical data...
Loading historical data...
Loading historical data...
Loading historical data...

Documentation

Showing up to 5 results
|